Year,Month,Day,Hour,Minute,Value (Times are PST for temperature in C)
2023,10,07,00,00,10.70
2023,10,07,00,01,10.70
2023,10,07,00,02,10.70
2023,10,07,00,03,10.60
2023,10,07,00,04,10.60
2023,10,07,00,05,10.60
2023,10,07,00,06,10.60
2023,10,07,00,07,10.60
2023,10,07,00,08,10.60
2023,10,07,00,09,10.60
2023,10,07,00,10,10.60
2023,10,07,00,11,10.60
2023,10,07,00,12,10.60
2023,10,07,00,13,10.60
2023,10,07,00,14,10.60
2023,10,07,00,15,10.60
2023,10,07,00,16,10.60
2023,10,07,00,17,10.60
2023,10,07,00,18,10.60
2023,10,07,00,19,10.60
2023,10,07,00,20,10.60
2023,10,07,00,21,10.60
2023,10,07,00,22,10.60
2023,10,07,00,23,10.60
2023,10,07,00,24,10.60
2023,10,07,00,25,10.60
2023,10,07,00,26,10.60
2023,10,07,00,27,10.50
2023,10,07,00,28,10.40
2023,10,07,00,29,10.40
2023,10,07,00,30,10.40
2023,10,07,00,31,10.40
2023,10,07,00,32,10.40
2023,10,07,00,33,10.40
2023,10,07,00,34,10.40
2023,10,07,00,35,10.40
2023,10,07,00,36,10.40
2023,10,07,00,37,10.40
2023,10,07,00,38,10.40
2023,10,07,00,39,10.40
2023,10,07,00,40,10.40
2023,10,07,00,41,10.40
2023,10,07,00,42,10.40
2023,10,07,00,43,10.40
2023,10,07,00,44,10.40
2023,10,07,00,45,10.40
2023,10,07,00,46,10.40
2023,10,07,00,47,10.40
2023,10,07,00,48,10.40
2023,10,07,00,49,10.40
2023,10,07,00,50,10.30
2023,10,07,00,51,10.30
2023,10,07,00,52,10.30
2023,10,07,00,53,10.30
2023,10,07,00,54,10.30
2023,10,07,00,55,10.20
2023,10,07,00,56,10.20
2023,10,07,00,57,10.20
2023,10,07,00,58,10.20
2023,10,07,00,59,10.20
2023,10,07,01,00,10.20
2023,10,07,01,01,10.20
2023,10,07,01,02,10.10
2023,10,07,01,03,10.10
2023,10,07,01,04,10.10
2023,10,07,01,05,10.10
2023,10,07,01,06,10.10
2023,10,07,01,07,10.10
2023,10,07,01,08,10.10
2023,10,07,01,09,10.10
2023,10,07,01,10,10.10
2023,10,07,01,11,10.10
2023,10,07,01,12,10.10
2023,10,07,01,13,10.00
2023,10,07,01,14,9.90
2023,10,07,01,15,9.90
2023,10,07,01,16,9.90
2023,10,07,01,17,9.90
2023,10,07,01,18,9.90
2023,10,07,01,19,9.90
2023,10,07,01,20,9.90
2023,10,07,01,21,9.90
2023,10,07,01,22,9.90
2023,10,07,01,23,9.90
2023,10,07,01,24,9.90
2023,10,07,01,25,9.90
2023,10,07,01,26,9.90
2023,10,07,01,27,9.90
2023,10,07,01,28,9.90
2023,10,07,01,29,9.90
2023,10,07,01,30,9.90
2023,10,07,01,31,9.90
2023,10,07,01,32,9.90
2023,10,07,01,33,9.90
2023,10,07,01,34,9.90
2023,10,07,01,35,9.90
2023,10,07,01,36,9.90
2023,10,07,01,37,9.90
2023,10,07,01,38,9.90
2023,10,07,01,39,9.90
2023,10,07,01,40,9.90
2023,10,07,01,41,9.90
2023,10,07,01,42,10.00
2023,10,07,01,43,10.10
2023,10,07,01,44,10.10
2023,10,07,01,45,10.00
2023,10,07,01,46,9.90
2023,10,07,01,47,9.90
2023,10,07,01,48,9.90
2023,10,07,01,49,9.90
2023,10,07,01,50,9.90
2023,10,07,01,51,9.90
2023,10,07,01,52,9.90
2023,10,07,01,53,9.80
2023,10,07,01,54,9.80
2023,10,07,01,55,9.80
2023,10,07,01,56,9.80
2023,10,07,01,57,9.80
2023,10,07,01,58,9.70
2023,10,07,01,59,9.70
2023,10,07,02,00,9.70
2023,10,07,02,01,9.70
2023,10,07,02,02,9.70
2023,10,07,02,03,9.70
2023,10,07,02,04,9.70
2023,10,07,02,05,9.70
2023,10,07,02,06,9.70
2023,10,07,02,07,9.70
2023,10,07,02,08,9.70
2023,10,07,02,09,9.70
2023,10,07,02,10,9.70
2023,10,07,02,11,9.70
2023,10,07,02,12,9.70
2023,10,07,02,13,9.70
2023,10,07,02,14,9.70
2023,10,07,02,15,9.70
2023,10,07,02,16,9.70
2023,10,07,02,17,9.70
2023,10,07,02,18,9.70
2023,10,07,02,19,9.70
2023,10,07,02,20,9.70
2023,10,07,02,21,9.70
2023,10,07,02,22,9.70
2023,10,07,02,23,9.70
2023,10,07,02,24,9.70
2023,10,07,02,25,9.60
2023,10,07,02,26,9.60
2023,10,07,02,27,9.60
2023,10,07,02,28,9.60
2023,10,07,02,29,9.50
2023,10,07,02,30,9.50
2023,10,07,02,31,9.50
2023,10,07,02,32,9.50
2023,10,07,02,33,9.50
2023,10,07,02,34,9.50
2023,10,07,02,35,9.50
2023,10,07,02,36,9.50
2023,10,07,02,37,9.50
2023,10,07,02,38,9.50
2023,10,07,02,39,9.50
2023,10,07,02,40,9.50
2023,10,07,02,41,9.50
2023,10,07,02,42,9.50
2023,10,07,02,43,9.50
2023,10,07,02,44,9.40
2023,10,07,02,45,9.40
2023,10,07,02,46,9.40
2023,10,07,02,47,9.40
2023,10,07,02,48,9.40
2023,10,07,02,49,9.40
2023,10,07,02,50,9.40
2023,10,07,02,51,9.40
2023,10,07,02,52,9.40
2023,10,07,02,53,9.40
2023,10,07,02,54,9.40
2023,10,07,02,55,9.40
2023,10,07,02,56,9.40
2023,10,07,02,57,9.40
2023,10,07,02,58,9.40
2023,10,07,02,59,9.30
2023,10,07,03,00,9.30
2023,10,07,03,01,9.30
2023,10,07,03,02,9.30
2023,10,07,03,03,9.30
2023,10,07,03,04,9.30
2023,10,07,03,05,9.20
2023,10,07,03,06,9.20
2023,10,07,03,07,9.20
2023,10,07,03,08,9.20
2023,10,07,03,09,9.20
2023,10,07,03,10,9.20
2023,10,07,03,11,9.20
2023,10,07,03,12,9.20
2023,10,07,03,13,9.20
2023,10,07,03,14,9.20
2023,10,07,03,15,9.20
2023,10,07,03,16,9.20
2023,10,07,03,17,9.20
2023,10,07,03,18,9.20
2023,10,07,03,19,9.20
2023,10,07,03,20,9.20
2023,10,07,03,21,9.10
2023,10,07,03,22,9.10
2023,10,07,03,23,9.10
2023,10,07,03,24,9.10
2023,10,07,03,25,9.10
2023,10,07,03,26,9.10
2023,10,07,03,27,9.10
2023,10,07,03,28,9.00
2023,10,07,03,29,9.00
2023,10,07,03,30,9.00
2023,10,07,03,31,9.00
2023,10,07,03,32,9.00
2023,10,07,03,33,9.00
2023,10,07,03,34,9.00
2023,10,07,03,35,9.00
2023,10,07,03,36,9.00
2023,10,07,03,37,9.00
2023,10,07,03,38,8.90
2023,10,07,03,39,8.90
2023,10,07,03,40,8.90
2023,10,07,03,41,8.90
2023,10,07,03,42,8.90
2023,10,07,03,43,8.90
2023,10,07,03,44,8.90
2023,10,07,03,45,8.90
2023,10,07,03,46,8.90
2023,10,07,03,47,8.90
2023,10,07,03,48,8.90
2023,10,07,03,49,8.90
2023,10,07,03,50,8.90
2023,10,07,03,51,8.80
2023,10,07,03,52,8.80
2023,10,07,03,53,8.80
2023,10,07,03,54,8.80
2023,10,07,03,55,8.80
2023,10,07,03,56,8.80
2023,10,07,03,57,8.80
2023,10,07,03,58,8.80
2023,10,07,03,59,8.80
2023,10,07,04,00,8.80
2023,10,07,04,01,8.80
2023,10,07,04,02,8.80
2023,10,07,04,03,8.80
2023,10,07,04,04,8.80
2023,10,07,04,05,8.80
2023,10,07,04,06,8.70
2023,10,07,04,07,8.70
2023,10,07,04,08,8.70
2023,10,07,04,09,8.70
2023,10,07,04,10,8.70
2023,10,07,04,11,8.70
2023,10,07,04,12,8.70
2023,10,07,04,13,8.70
2023,10,07,04,14,8.70
2023,10,07,04,15,8.70
2023,10,07,04,16,8.80
2023,10,07,04,17,8.80
2023,10,07,04,18,8.80
2023,10,07,04,19,8.80
2023,10,07,04,20,8.80
2023,10,07,04,21,8.80
2023,10,07,04,22,8.80
2023,10,07,04,23,8.80
2023,10,07,04,24,8.80
2023,10,07,04,25,8.80
2023,10,07,04,26,8.80
2023,10,07,04,27,8.80
2023,10,07,04,28,8.80
2023,10,07,04,29,8.80
2023,10,07,04,30,8.80
2023,10,07,04,31,8.70
2023,10,07,04,32,8.70
2023,10,07,04,33,8.70
2023,10,07,04,34,8.70
2023,10,07,04,35,8.70
2023,10,07,04,36,8.70
2023,10,07,04,37,8.70
2023,10,07,04,38,8.70
2023,10,07,04,39,8.70
2023,10,07,04,40,8.70
2023,10,07,04,41,8.70
2023,10,07,04,42,8.70
2023,10,07,04,43,8.70
2023,10,07,04,44,8.70
2023,10,07,04,45,8.70
2023,10,07,04,46,8.70
2023,10,07,04,47,8.70
2023,10,07,04,48,8.70
2023,10,07,04,49,8.70
2023,10,07,04,50,8.70
2023,10,07,04,51,8.70
2023,10,07,04,52,8.70
2023,10,07,04,53,8.70
2023,10,07,04,54,8.70
2023,10,07,04,55,8.60
2023,10,07,04,56,8.60
2023,10,07,04,57,8.60
2023,10,07,04,58,8.60
2023,10,07,04,59,8.60
2023,10,07,05,00,8.60
2023,10,07,05,01,8.60
2023,10,07,05,02,8.60
2023,10,07,05,03,8.60
2023,10,07,05,04,8.60
2023,10,07,05,05,8.60
2023,10,07,05,06,8.60
2023,10,07,05,07,8.60
2023,10,07,05,08,8.60
2023,10,07,05,09,8.60
2023,10,07,05,10,8.60
2023,10,07,05,11,8.60
2023,10,07,05,12,8.60
2023,10,07,05,13,8.60
2023,10,07,05,14,8.70
2023,10,07,05,15,8.70
2023,10,07,05,16,8.70
2023,10,07,05,17,8.60
2023,10,07,05,18,8.60
2023,10,07,05,19,8.60
2023,10,07,05,20,8.60
2023,10,07,05,21,8.60
2023,10,07,05,22,8.50
2023,10,07,05,23,8.50
2023,10,07,05,24,8.50
2023,10,07,05,25,8.50
2023,10,07,05,26,8.50
2023,10,07,05,27,8.60
2023,10,07,05,28,8.60
2023,10,07,05,29,8.60
2023,10,07,05,30,8.60
2023,10,07,05,31,8.60
2023,10,07,05,32,8.60
2023,10,07,05,33,8.60
2023,10,07,05,34,8.60
2023,10,07,05,35,8.60
2023,10,07,05,36,8.60
2023,10,07,05,37,8.60
2023,10,07,05,38,8.60
2023,10,07,05,39,8.50
2023,10,07,05,40,8.50
2023,10,07,05,41,8.50
2023,10,07,05,42,8.50
2023,10,07,05,43,8.50
2023,10,07,05,44,8.50
2023,10,07,05,45,8.50
2023,10,07,05,46,8.50
2023,10,07,05,47,8.50
2023,10,07,05,48,8.50
2023,10,07,05,49,8.50
2023,10,07,05,50,8.50
2023,10,07,05,51,8.50
2023,10,07,05,52,8.50
2023,10,07,05,53,8.50
2023,10,07,05,54,8.50
2023,10,07,05,55,8.50
2023,10,07,05,56,8.50
2023,10,07,05,57,8.60
2023,10,07,05,58,8.60
2023,10,07,05,59,8.60
2023,10,07,06,00,8.60
2023,10,07,06,01,8.60
2023,10,07,06,02,8.50
2023,10,07,06,03,8.50
2023,10,07,06,04,8.50
2023,10,07,06,05,8.50
2023,10,07,06,06,8.50
2023,10,07,06,07,8.40
2023,10,07,06,08,8.40
2023,10,07,06,09,8.40
2023,10,07,06,10,8.40
2023,10,07,06,11,8.40
2023,10,07,06,12,8.40
2023,10,07,06,13,8.40
2023,10,07,06,14,8.40
2023,10,07,06,15,8.40
2023,10,07,06,16,8.40
2023,10,07,06,17,8.40
2023,10,07,06,18,8.40
2023,10,07,06,19,8.40
2023,10,07,06,20,8.40
2023,10,07,06,21,8.40
2023,10,07,06,22,8.40
2023,10,07,06,23,8.50
2023,10,07,06,24,8.70
2023,10,07,06,25,8.80
2023,10,07,06,26,9.00
2023,10,07,06,27,9.10
2023,10,07,06,28,9.20
2023,10,07,06,29,9.20
2023,10,07,06,30,9.20
2023,10,07,06,31,9.20
2023,10,07,06,32,9.20
2023,10,07,06,33,9.20
2023,10,07,06,34,9.30
2023,10,07,06,35,9.40
2023,10,07,06,36,9.40
2023,10,07,06,37,9.40
2023,10,07,06,38,9.40
2023,10,07,06,39,9.40
2023,10,07,06,40,9.40
2023,10,07,06,41,9.40
2023,10,07,06,42,9.30
2023,10,07,06,43,9.30
2023,10,07,06,44,9.20
2023,10,07,06,45,9.30
2023,10,07,06,46,9.40
2023,10,07,06,47,9.50
2023,10,07,06,48,9.60
2023,10,07,06,49,9.70
2023,10,07,06,50,9.70
2023,10,07,06,51,9.70
2023,10,07,06,52,9.70
2023,10,07,06,53,9.60
2023,10,07,06,54,9.50
2023,10,07,06,55,9.40
2023,10,07,06,56,9.30
2023,10,07,06,57,9.30
2023,10,07,06,58,9.20
2023,10,07,06,59,9.20
2023,10,07,07,00,9.20
2023,10,07,07,01,9.30
2023,10,07,07,02,9.30
2023,10,07,07,03,9.30
2023,10,07,07,04,9.30
2023,10,07,07,05,9.30
2023,10,07,07,06,9.20
2023,10,07,07,07,9.20
2023,10,07,07,08,9.20
2023,10,07,07,09,9.10
2023,10,07,07,10,9.10
2023,10,07,07,11,9.10
2023,10,07,07,12,9.20
2023,10,07,07,13,9.30
2023,10,07,07,14,9.40
2023,10,07,07,15,9.50
2023,10,07,07,16,9.50
2023,10,07,07,17,9.60
2023,10,07,07,18,9.70
2023,10,07,07,19,9.70
2023,10,07,07,20,9.70
2023,10,07,07,21,9.70
2023,10,07,07,22,9.60
2023,10,07,07,23,9.50
2023,10,07,07,24,9.40
2023,10,07,07,25,9.40
2023,10,07,07,26,9.30
2023,10,07,07,27,9.30
2023,10,07,07,28,9.40
2023,10,07,07,29,9.40
2023,10,07,07,30,9.40
2023,10,07,07,31,9.30
2023,10,07,07,32,9.30
2023,10,07,07,33,9.30
2023,10,07,07,34,9.30
2023,10,07,07,35,9.20
2023,10,07,07,36,9.20
2023,10,07,07,37,9.20
2023,10,07,07,38,9.20
2023,10,07,07,39,9.20
2023,10,07,07,40,9.20
2023,10,07,07,41,9.20
2023,10,07,07,42,9.20
2023,10,07,07,43,9.20
2023,10,07,07,44,9.20
2023,10,07,07,45,9.20
2023,10,07,07,46,9.20
2023,10,07,07,47,9.20
2023,10,07,07,48,9.20
2023,10,07,07,49,9.20
2023,10,07,07,50,9.20
2023,10,07,07,51,9.30
2023,10,07,07,52,9.30
2023,10,07,07,53,9.30
2023,10,07,07,54,9.30
2023,10,07,07,55,9.40
2023,10,07,07,56,9.40
2023,10,07,07,57,9.40
2023,10,07,07,58,9.40
2023,10,07,07,59,9.50
2023,10,07,08,00,9.50
2023,10,07,08,01,9.50
2023,10,07,08,02,9.60
2023,10,07,08,03,9.70
2023,10,07,08,04,9.70
2023,10,07,08,05,9.70
2023,10,07,08,06,9.80
2023,10,07,08,07,9.80
2023,10,07,08,08,9.90
2023,10,07,08,09,9.90
2023,10,07,08,10,9.90
2023,10,07,08,11,10.00
2023,10,07,08,12,10.10
2023,10,07,08,13,10.20
2023,10,07,08,14,10.20
2023,10,07,08,15,10.30
2023,10,07,08,16,10.40
2023,10,07,08,17,10.50
2023,10,07,08,18,10.60
2023,10,07,08,19,10.70
2023,10,07,08,20,10.80
2023,10,07,08,21,10.90
2023,10,07,08,22,11.00
2023,10,07,08,23,11.10
2023,10,07,08,24,11.20
2023,10,07,08,25,11.30
2023,10,07,08,26,11.50
2023,10,07,08,27,11.60
2023,10,07,08,28,11.70
2023,10,07,08,29,11.80
2023,10,07,08,30,11.80
2023,10,07,08,31,12.00
2023,10,07,08,32,12.10
2023,10,07,08,33,12.20
2023,10,07,08,34,12.20
2023,10,07,08,35,12.30
2023,10,07,08,36,12.40
2023,10,07,08,37,12.50
2023,10,07,08,38,12.60
2023,10,07,08,39,12.70
2023,10,07,08,40,12.80
2023,10,07,08,41,12.90
2023,10,07,08,42,13.10
2023,10,07,08,43,13.20
2023,10,07,08,44,13.30
2023,10,07,08,45,13.50
2023,10,07,08,46,13.60
2023,10,07,08,47,13.70
2023,10,07,08,48,13.90
2023,10,07,08,49,14.00
2023,10,07,08,50,14.20
2023,10,07,08,51,14.30
2023,10,07,08,52,14.50
2023,10,07,08,53,14.60
2023,10,07,08,54,14.70
2023,10,07,08,55,14.90
2023,10,07,08,56,15.00
2023,10,07,08,57,15.20
2023,10,07,08,58,15.30
2023,10,07,08,59,15.40
2023,10,07,09,00,15.50
2023,10,07,09,01,15.60
2023,10,07,09,02,15.70
2023,10,07,09,03,15.80
2023,10,07,09,04,15.90
2023,10,07,09,05,16.00
2023,10,07,09,06,16.10
2023,10,07,09,07,16.10
2023,10,07,09,08,16.20
2023,10,07,09,09,16.30
2023,10,07,09,10,16.30
2023,10,07,09,11,16.40
2023,10,07,09,12,16.50
2023,10,07,09,13,16.60
2023,10,07,09,14,16.60
2023,10,07,09,15,16.70
2023,10,07,09,16,16.70
2023,10,07,09,17,16.80
2023,10,07,09,18,16.90
2023,10,07,09,19,17.00
2023,10,07,09,20,17.10
2023,10,07,09,21,17.10
2023,10,07,09,22,17.30
2023,10,07,09,23,17.30
2023,10,07,09,24,17.40
2023,10,07,09,25,17.50
2023,10,07,09,26,17.50
2023,10,07,09,27,17.60
2023,10,07,09,28,17.70
2023,10,07,09,29,17.80
2023,10,07,09,30,17.80
2023,10,07,09,31,17.80
2023,10,07,09,32,17.90
2023,10,07,09,33,17.90
2023,10,07,09,34,17.90
2023,10,07,09,35,17.90
2023,10,07,09,36,17.90
2023,10,07,09,37,18.00
2023,10,07,09,38,18.10
2023,10,07,09,39,18.20
2023,10,07,09,40,18.20
2023,10,07,09,41,18.30
2023,10,07,09,42,18.30
2023,10,07,09,43,18.40
2023,10,07,09,44,18.40
2023,10,07,09,45,18.50
2023,10,07,09,46,18.60
2023,10,07,09,47,18.60
2023,10,07,09,48,18.70
2023,10,07,09,49,18.70
2023,10,07,09,50,18.80
2023,10,07,09,51,18.90
2023,10,07,09,52,18.90
2023,10,07,09,53,18.90
2023,10,07,09,54,18.90
2023,10,07,09,55,19.00
2023,10,07,09,56,19.10
2023,10,07,09,57,19.10
2023,10,07,09,58,19.10
2023,10,07,09,59,19.20
2023,10,07,10,00,19.20
2023,10,07,10,01,19.30
2023,10,07,10,02,19.40
2023,10,07,10,03,19.40
2023,10,07,10,04,19.50
2023,10,07,10,05,19.60
2023,10,07,10,06,19.60
2023,10,07,10,07,19.70
2023,10,07,10,08,19.70
2023,10,07,10,09,19.70
2023,10,07,10,10,19.70
2023,10,07,10,11,19.70
2023,10,07,10,12,19.70
2023,10,07,10,13,19.70
2023,10,07,10,14,19.70
2023,10,07,10,15,19.70
2023,10,07,10,16,19.70
2023,10,07,10,17,19.70
2023,10,07,10,18,19.80
2023,10,07,10,19,19.80
2023,10,07,10,20,19.80
2023,10,07,10,21,19.80
2023,10,07,10,22,19.90
2023,10,07,10,23,19.90
2023,10,07,10,24,19.90
2023,10,07,10,25,19.90
2023,10,07,10,26,20.00
2023,10,07,10,27,20.10
2023,10,07,10,28,20.10
2023,10,07,10,29,20.20
2023,10,07,10,30,20.20
2023,10,07,10,31,20.20
2023,10,07,10,32,20.20
2023,10,07,10,33,20.30
2023,10,07,10,34,20.30
2023,10,07,10,35,20.30
2023,10,07,10,36,20.30
2023,10,07,10,37,20.30
2023,10,07,10,38,20.30
2023,10,07,10,39,20.30
2023,10,07,10,40,20.30
2023,10,07,10,41,20.40
2023,10,07,10,42,20.40
2023,10,07,10,43,20.50
2023,10,07,10,44,20.50
2023,10,07,10,45,20.50
2023,10,07,10,46,20.60
2023,10,07,10,47,20.60
2023,10,07,10,48,20.60
2023,10,07,10,49,20.70
2023,10,07,10,50,20.70
2023,10,07,10,51,20.80
2023,10,07,10,52,20.80
2023,10,07,10,53,20.80
2023,10,07,10,54,20.80
2023,10,07,10,55,20.80
2023,10,07,10,56,20.70
2023,10,07,10,57,20.70
2023,10,07,10,58,20.70
2023,10,07,10,59,20.60
2023,10,07,11,00,20.60
2023,10,07,11,01,20.70
2023,10,07,11,02,20.70
2023,10,07,11,03,20.70
2023,10,07,11,04,20.80
2023,10,07,11,05,20.80
2023,10,07,11,06,20.90
2023,10,07,11,07,21.00
2023,10,07,11,08,21.00
2023,10,07,11,09,21.10
2023,10,07,11,10,21.10
2023,10,07,11,11,21.20
2023,10,07,11,12,21.30
2023,10,07,11,13,21.30
2023,10,07,11,14,21.30
2023,10,07,11,15,21.40
2023,10,07,11,16,21.40
2023,10,07,11,17,21.40
2023,10,07,11,18,21.50
2023,10,07,11,19,21.60
2023,10,07,11,20,21.60
2023,10,07,11,21,21.60
2023,10,07,11,22,21.60
2023,10,07,11,23,21.60
2023,10,07,11,24,21.60
2023,10,07,11,25,21.60
2023,10,07,11,26,21.60
2023,10,07,11,27,21.60
2023,10,07,11,28,21.70
2023,10,07,11,29,21.80
2023,10,07,11,30,21.90
2023,10,07,11,31,21.90
2023,10,07,11,32,22.00
2023,10,07,11,33,22.00
2023,10,07,11,34,22.10
2023,10,07,11,35,22.10
2023,10,07,11,36,22.10
2023,10,07,11,37,22.10
2023,10,07,11,38,22.10
2023,10,07,11,39,22.00
2023,10,07,11,40,22.00
2023,10,07,11,41,21.90
2023,10,07,11,42,21.90
2023,10,07,11,43,21.90
2023,10,07,11,44,21.80
2023,10,07,11,45,21.80
2023,10,07,11,46,21.70
2023,10,07,11,47,21.70
2023,10,07,11,48,21.70
2023,10,07,11,49,21.70
2023,10,07,11,50,21.70
2023,10,07,11,51,21.80
2023,10,07,11,52,21.80
2023,10,07,11,53,21.80
2023,10,07,11,54,21.90
2023,10,07,11,55,21.90
2023,10,07,11,56,21.90
2023,10,07,11,57,21.90
2023,10,07,11,58,21.90
2023,10,07,11,59,21.90
2023,10,07,12,00,21.90
2023,10,07,12,01,22.00
2023,10,07,12,02,22.00
2023,10,07,12,03,22.10
2023,10,07,12,04,22.10
2023,10,07,12,05,22.10
2023,10,07,12,06,22.20
2023,10,07,12,07,22.20
2023,10,07,12,08,22.30
2023,10,07,12,09,22.30
2023,10,07,12,10,22.40
2023,10,07,12,11,22.40
2023,10,07,12,12,22.50
2023,10,07,12,13,22.50
2023,10,07,12,14,22.50
2023,10,07,12,15,22.40
2023,10,07,12,16,22.40
2023,10,07,12,17,22.50
2023,10,07,12,18,22.50
2023,10,07,12,19,22.60
2023,10,07,12,20,22.60
2023,10,07,12,21,22.60
2023,10,07,12,22,22.70
2023,10,07,12,23,22.70
2023,10,07,12,24,22.60
2023,10,07,12,25,22.60
2023,10,07,12,26,22.60
2023,10,07,12,27,22.50
2023,10,07,12,28,22.50
2023,10,07,12,29,22.40
2023,10,07,12,30,22.40
2023,10,07,12,31,22.40
2023,10,07,12,32,22.40
2023,10,07,12,33,22.40
2023,10,07,12,34,22.30
2023,10,07,12,35,22.30
2023,10,07,12,36,22.30
2023,10,07,12,37,22.40
2023,10,07,12,38,22.40
2023,10,07,12,39,22.50
2023,10,07,12,40,22.50
2023,10,07,12,41,22.60
2023,10,07,12,42,22.60
2023,10,07,12,43,22.70
2023,10,07,12,44,22.70
2023,10,07,12,45,22.70
2023,10,07,12,46,22.70
2023,10,07,12,47,22.70
2023,10,07,12,48,22.70
2023,10,07,12,49,22.70
2023,10,07,12,50,22.80
2023,10,07,12,51,22.80
2023,10,07,12,52,22.80
2023,10,07,12,53,22.80
2023,10,07,12,54,22.90
2023,10,07,12,55,22.90
2023,10,07,12,56,23.00
2023,10,07,12,57,23.10
2023,10,07,12,58,23.10
2023,10,07,12,59,23.20
2023,10,07,13,00,23.20
2023,10,07,13,01,23.20
2023,10,07,13,02,23.20
2023,10,07,13,03,23.20
2023,10,07,13,04,23.20
2023,10,07,13,05,23.20
2023,10,07,13,06,23.20
2023,10,07,13,07,23.20
2023,10,07,13,08,23.20
2023,10,07,13,09,23.30
2023,10,07,13,10,23.30
2023,10,07,13,11,23.30
2023,10,07,13,12,23.30
2023,10,07,13,13,23.40
2023,10,07,13,14,23.40
2023,10,07,13,15,23.50
2023,10,07,13,16,23.60
2023,10,07,13,17,23.60
2023,10,07,13,18,23.60
2023,10,07,13,19,23.70
2023,10,07,13,20,23.70
2023,10,07,13,21,23.70
2023,10,07,13,22,23.70
2023,10,07,13,23,23.70
2023,10,07,13,24,23.70
2023,10,07,13,25,23.70
2023,10,07,13,26,23.70
2023,10,07,13,27,23.60
2023,10,07,13,28,23.60
2023,10,07,13,29,23.60
2023,10,07,13,30,23.60
2023,10,07,13,31,23.60
2023,10,07,13,32,23.60
2023,10,07,13,33,23.60
2023,10,07,13,34,23.60
2023,10,07,13,35,23.60
2023,10,07,13,36,23.50
2023,10,07,13,37,23.40
2023,10,07,13,38,23.40
2023,10,07,13,39,23.50
2023,10,07,13,40,23.60
2023,10,07,13,41,23.60
2023,10,07,13,42,23.60
2023,10,07,13,43,23.60
2023,10,07,13,44,23.70
2023,10,07,13,45,23.70
2023,10,07,13,46,23.70
2023,10,07,13,47,23.80
2023,10,07,13,48,23.80
2023,10,07,13,49,23.80
2023,10,07,13,50,23.90
2023,10,07,13,51,23.90
2023,10,07,13,52,23.90
2023,10,07,13,53,24.10
2023,10,07,13,54,24.10
2023,10,07,13,55,24.10
2023,10,07,13,56,24.20
2023,10,07,13,57,24.30
2023,10,07,13,58,24.40
2023,10,07,13,59,24.30
2023,10,07,14,00,24.20
2023,10,07,14,01,24.10
2023,10,07,14,02,23.90
2023,10,07,14,03,23.60
2023,10,07,14,04,23.30
2023,10,07,14,05,23.00
2023,10,07,14,06,22.80
2023,10,07,14,07,22.60
2023,10,07,14,08,22.40
2023,10,07,14,09,22.30
2023,10,07,14,10,22.20
2023,10,07,14,11,22.10
2023,10,07,14,12,22.00
2023,10,07,14,13,22.00
2023,10,07,14,14,21.90
2023,10,07,14,15,21.80
2023,10,07,14,16,21.70
2023,10,07,14,17,21.60
2023,10,07,14,18,21.60
2023,10,07,14,19,21.60
2023,10,07,14,20,21.60
2023,10,07,14,21,21.50
2023,10,07,14,22,21.30
2023,10,07,14,23,21.30
2023,10,07,14,24,21.30
2023,10,07,14,25,21.30
2023,10,07,14,26,21.30
2023,10,07,14,27,21.30
2023,10,07,14,28,21.30
2023,10,07,14,29,21.30
2023,10,07,14,30,21.30
2023,10,07,14,31,21.30
2023,10,07,14,32,21.30
2023,10,07,14,33,21.30
2023,10,07,14,34,21.30
2023,10,07,14,35,21.10
2023,10,07,14,36,21.00
2023,10,07,14,37,21.00
2023,10,07,14,38,20.90
2023,10,07,14,39,20.80
2023,10,07,14,40,20.80
2023,10,07,14,41,20.80
2023,10,07,14,42,20.80
2023,10,07,14,43,20.80
2023,10,07,14,44,20.80
2023,10,07,14,45,20.70
2023,10,07,14,46,20.60
2023,10,07,14,47,20.50
2023,10,07,14,48,20.40
2023,10,07,14,49,20.30
2023,10,07,14,50,20.20
2023,10,07,14,51,20.10
2023,10,07,14,52,19.90
2023,10,07,14,53,19.90
2023,10,07,14,54,19.80
2023,10,07,14,55,19.80
2023,10,07,14,56,19.70
2023,10,07,14,57,19.70
2023,10,07,14,58,19.70
2023,10,07,14,59,19.70
2023,10,07,15,00,19.60
2023,10,07,15,01,19.60
2023,10,07,15,02,19.60
2023,10,07,15,03,19.70
2023,10,07,15,04,19.70
2023,10,07,15,05,19.70
2023,10,07,15,06,19.70
2023,10,07,15,07,19.70
2023,10,07,15,08,19.70
2023,10,07,15,09,19.60
2023,10,07,15,10,19.60
2023,10,07,15,11,19.60
2023,10,07,15,12,19.60
2023,10,07,15,13,19.60
2023,10,07,15,14,19.50
2023,10,07,15,15,19.50
2023,10,07,15,16,19.50
2023,10,07,15,17,19.50
2023,10,07,15,18,19.40
2023,10,07,15,19,19.40
2023,10,07,15,20,19.40
2023,10,07,15,21,19.30
2023,10,07,15,22,19.30
2023,10,07,15,23,19.30
2023,10,07,15,24,19.30
2023,10,07,15,25,19.30
2023,10,07,15,26,19.30
2023,10,07,15,27,19.30
2023,10,07,15,28,19.30
2023,10,07,15,29,19.20
2023,10,07,15,30,19.20
2023,10,07,15,31,19.20
2023,10,07,15,32,19.20
2023,10,07,15,33,19.20
2023,10,07,15,34,19.20
2023,10,07,15,35,19.20
2023,10,07,15,36,19.20
2023,10,07,15,37,19.20
2023,10,07,15,38,19.10
2023,10,07,15,39,19.10
2023,10,07,15,40,19.10
2023,10,07,15,41,19.10
2023,10,07,15,42,19.10
2023,10,07,15,43,19.10
2023,10,07,15,44,19.10
2023,10,07,15,45,19.10
2023,10,07,15,46,19.10
2023,10,07,15,47,19.10
2023,10,07,15,48,19.10
2023,10,07,15,49,19.10
2023,10,07,15,50,19.10
2023,10,07,15,51,19.10
2023,10,07,15,52,19.10
2023,10,07,15,53,19.10
2023,10,07,15,54,19.10
2023,10,07,15,55,19.10
2023,10,07,15,56,19.10
2023,10,07,15,57,19.10
2023,10,07,15,58,19.10
2023,10,07,15,59,19.10
2023,10,07,16,00,19.20
2023,10,07,16,01,19.20
2023,10,07,16,02,19.30
2023,10,07,16,03,19.30
2023,10,07,16,04,19.30
2023,10,07,16,05,19.40
2023,10,07,16,06,19.40
2023,10,07,16,07,19.40
2023,10,07,16,08,19.40
2023,10,07,16,09,19.40
2023,10,07,16,10,19.40
2023,10,07,16,11,19.40
2023,10,07,16,12,19.40
2023,10,07,16,13,19.30
2023,10,07,16,14,19.30
2023,10,07,16,15,19.30
2023,10,07,16,16,19.20
2023,10,07,16,17,19.20
2023,10,07,16,18,19.20
2023,10,07,16,19,19.10
2023,10,07,16,20,19.10
2023,10,07,16,21,19.10
2023,10,07,16,22,19.10
2023,10,07,16,23,19.10
2023,10,07,16,24,19.10
2023,10,07,16,25,18.90
2023,10,07,16,26,18.90
2023,10,07,16,27,18.90
2023,10,07,16,28,18.90
2023,10,07,16,29,18.90
2023,10,07,16,30,18.90
2023,10,07,16,31,18.90
2023,10,07,16,32,18.90
2023,10,07,16,33,18.80
2023,10,07,16,34,18.70
2023,10,07,16,35,18.70
2023,10,07,16,36,18.60
2023,10,07,16,37,18.60
2023,10,07,16,38,18.50
2023,10,07,16,39,18.50
2023,10,07,16,40,18.40
2023,10,07,16,41,18.30
2023,10,07,16,42,18.30
2023,10,07,16,43,18.20
2023,10,07,16,44,18.20
2023,10,07,16,45,18.10
2023,10,07,16,46,18.10
2023,10,07,16,47,17.90
2023,10,07,16,48,17.90
2023,10,07,16,49,17.90
2023,10,07,16,50,17.90
2023,10,07,16,51,17.80
2023,10,07,16,52,17.80
2023,10,07,16,53,17.80
2023,10,07,16,54,17.70
2023,10,07,16,55,17.70
2023,10,07,16,56,17.70
2023,10,07,16,57,17.70
2023,10,07,16,58,17.60
2023,10,07,16,59,17.60
2023,10,07,17,00,17.60
2023,10,07,17,01,17.60
2023,10,07,17,02,17.50
2023,10,07,17,03,17.50
2023,10,07,17,04,17.50
2023,10,07,17,05,17.50
2023,10,07,17,06,17.50
2023,10,07,17,07,17.40
2023,10,07,17,08,17.40
2023,10,07,17,09,17.40
2023,10,07,17,10,17.40
2023,10,07,17,11,17.40
2023,10,07,17,12,17.40
2023,10,07,17,13,17.30
2023,10,07,17,14,17.30
2023,10,07,17,15,17.30
2023,10,07,17,16,17.30
2023,10,07,17,17,17.30
2023,10,07,17,18,17.30
2023,10,07,17,19,17.30
2023,10,07,17,20,17.30
2023,10,07,17,21,17.30
2023,10,07,17,22,17.30
2023,10,07,17,23,17.20
2023,10,07,17,24,17.20
2023,10,07,17,25,17.20
2023,10,07,17,26,17.20
2023,10,07,17,27,17.20
2023,10,07,17,28,17.10
2023,10,07,17,29,17.10
2023,10,07,17,30,17.10
2023,10,07,17,31,17.10
2023,10,07,17,32,17.10
2023,10,07,17,33,17.00
2023,10,07,17,34,17.00
2023,10,07,17,35,17.00
2023,10,07,17,36,17.00
2023,10,07,17,37,17.00